Regional Weather Roundup
Issued by NWS Charleston, SC

Current Version | Previous Version | Text Only | Print | Product List | Glossary Off
Versions: 1 2 3 4 5 6 7 8 9 10 11 12 13 14 15 16 17 18 19 20 21 22 23 24 25 26 27 28 29 30 31 32 33 34 35 36 37 38 39 40 41 42 43 44 45 46 47 48 49 50

000
ASUS42 KCHS 260812
RWRCHS

REGIONAL WEATHER ROUNDUP
NATIONAL WEATHER SERVICE CHARLESTON SC
400 AM EDT TUE MAY 26 2015

NOTE: "FAIR" INDICATES FEW OR NO CLOUDS BELOW 12,000 FEET WITH NO
SIGNIFICANT WEATHER AND/OR OBSTRUCTIONS TO VISIBILITY.

NOT ALL STATIONS ARE QUALITY CONTROLLED BY THE NATIONAL
WEATHER SERVICE. USE DATA WITH CAUTION...ESPECIALLY
DEWPOINT OBSERVATIONS.

SCZ027-030-031-034>040-042>050-260900-
...SOUTHEAST SOUTH CAROLINA...

CITY           SKY/WX    TMP DP  RH WIND       PRES   REMARKS
N CHARLESTON   MOCLDY    73  70  90 SE5       30.22F
WATERFRONT PAR   N/A     75  73  93 E7        30.19F
MOUNT PLEASANT FAIR      72  72 100 CALM      30.22S
JOHNS ISLAND   CLOUDY    73  73 100 CALM      30.23S
PINOPOLIS        N/A     72  68  88 CALM      30.16R
MONCKS CORNER  PTSUNNY   70  66  88 CALM      30.22F
SUMMERVILLE    CLOUDY    64  64 100 CALM      30.23F
BEAUFORT MCAS  CLEAR     73  71  93 CALM      30.21F
BEAUFORT ARPT  FAIR      72  72 100 CALM      30.21F
HILTON HEAD IS MOCLDY    75  73  94 E3        30.22F
WALTERBORO     MOSUNNY   64  63  94 CALM      30.23F FOG
ALLENDALE        N/A     68  68 100 CALM      30.22S FOG

...SOUTHERN MIDLANDS AND PEE DEE...

CITY           SKY/WX    TMP DP  RH WIND       PRES   REMARKS
GEORGETOWN     NOT AVBL
KINGSTREE      NOT AVBL
ORANGEBURG     PTCLDY    66  64  93 E3        30.23F
BARNWELL       PTSUNNY   68  66  94 CALM      30.24S
AIKEN          PTSUNNY   68  64  88 CALM      30.27S
MANNING        FAIR      61  41  48 CALM      30.24S
COLUMBIA       PTCLDY    70  65  84 CALM      30.23S
SUMTER         PTCLDY    67  65  92 SE2       30.22F
FLORENCE       PTCLDY    64  63  96 NE3       30.24F
MYRTLE BEACH   MOCLDY    75  66  73 E7        30.26F
N MYRTLE BEACH CLOUDY    75  67  76 SE8       30.24F

$$

GAZ063-065-086>088-099>101-113>116-118-119-134>141-150-260900-
...SOUTHEAST GEORGIA...

CITY           SKY/WX    TMP DP  RH WIND       PRES   REMARKS
SAVANNAH ARPT  CLEAR     72  70  93 SE6       30.21S
HUNTER AAF     PTCLDY    73  73 100 E1        30.18F
FORT STEWART   NOT AVBL
STATESBORO     MOCLDY    70  32  24 CALM      30.22S
SYLVANIA       FOG       70  70 100 CALM      30.23R VSB 1/2
CLAXTON        CLOUDY    68  68 100 CALM      30.21F FOG

...CSRA...CENTRAL AND FAR SOUTHEAST GEORGIA...

CITY           SKY/WX    TMP DP  RH WIND       PRES   REMARKS
THOMSON        CLOUDY    73  71  94 SE3       30.27S
AUGUSTA-BUSH   CLOUDY    70  68  93 SE5       30.22S
AUGUSTA-DANIEL CLOUDY    72  68  87 SE5       30.24S
SWAINSBORO     CLOUDY   N/A N/A N/A SE7       30.23R
VIDALIA        MOCLDY    72  70  94 CALM      30.22R
EASTMAN        CLOUDY    71  71 100 E6        30.22F
HAZLEHURST     CLOUDY    74  74 100 CALM      30.19F
ALMA           CLOUDY    72  71  97 E5        30.20S
WAYCROSS       PTCLDY    72  72 100 CALM      30.19S
JESUP          FAIR      73  72  94 CALM      30.20S
BAXLEY         CLOUDY    73  72  94 CALM      30.19F
BRUNSWICK      PTCLDY    72  68  88 CALM      30.20S
SAINT SIMONS   NOT AVBL

$$

SCZ027-028-034-036>038-045-046-048>050-GAZ119-141-260900-
...LAKE AND SUPPLEMENTAL COASTAL OBSERVATIONS...

STATION/POSITION TIME  TEMP    WIND        PRES    WAVE   SWELL
                       AIR SEA DIR/SP/G            HT/PER HT/PER/DIR
                 (UTC) (F)     (DEG/KT/KT) (MB)    (FT/S) (FT/S/D)
UPR LAKE MARION  NOT AVBL
WINYAH BAY       0645   75     100/  7     1023.0
LAKE MURRAY      0700   72     150/  7/ 11 1023.4F
ACE BASIN NERRS  NOT AVBL
FORT PULASKI     0700   75 78  110/  6/  9 1023.6F
SAPELO ISLAND    0700   75     120/  3     1023.0S

$$

ANZ835-935-AMZ111-154-330-350-352-354-370-450-454-472-260900-
...C-MAN AND BUOY OBSERVATIONS...

STATION/POSITION TIME  TEMP    WIND        PRES    WAVE   SWELL
                       AIR SEA DIR/SP/G            HT/PER HT/PER/DIR
                 (UTC) (F)     (DEG/KT/KT) (MB)    (FT/S) (FT/S/D)
BUOY 41004       0750   78 75  160/ 10/ 12 1022.8F   4/ 6   3/ 6
BUOY 41008       0750   76 75  120/  6/  8 1022.6F   3/ 7   3/ 90/ 7
FOLLY BEACH CMAN 0800   75     120/  6/  7 1023.4F
CAPERS NEARSHORE 0708   75     110/  8/ 12 1023.5F
FRIPP NEARSHORE  0700   75     130/  8/ 10 1022.7F


STATION/POSITION TIME  TEMP    WIND        PRES    WAVE   SWELL
                       AIR SEA DIR/SP/G            HT/PER HT/PER/DIR
                 (UTC) (F)     (DEG/KT/KT) (MB)    (FT/S) (FT/S/D)
5E ST. MARYS GA  0721      78                N/A     3/ 7
FRYING PAN BUOY  0750   76 74  140/ 12/ 14 1025.0F   3/ 6   2/130/ 6
BUOY 41025       0750   75 77  170/ 16/ 17 1025.6S   3/ 5   2/ 80/ 7
CAPE LOOKOUT NC  0800   74     170/ 11/ 12 1025.1S
BUOY 41002       0750   73 74  130/ 14/ 16 1025.8F   4/ 7   2/100/ 7
BUOY 41010       0720   79 81  120/ 14/ 16 1022.6F
ST AUGUSTINE FL  0800   77 79  140/ 13/ 15 1022.7F


$$



USA.gov is the U.S. government's official web portal to all federal, state and local government web resources and services.